Hourly Weather Roundup
Issued by NWS Central Illinois

Home | Current Version | Previous Version | Text Only | Print | Product List | Glossary On
Versions: 1 2 3 4 5 6 7 8 9 10 11 12 13 14 15 16 17 18 19 20 21 22 23 24 25 26 27 28 29 30 31 32 33 34 35 36 37 38 39 40 41 42 43 44 45 46 47 48 49 50
000
NZUS43 KILX 171410
HWRILX

Area Weather Roundup
National Weather Service Lincoln IL
800 AM CST FRI NOV 17 2017

NOTE:  "FAIR" indicates few or no clouds below 12,000 feet, with
       no sigificant weather and/or obstructions to visibility.


CITY           SKY/WX    TMP DP  RH WIND       PRES   REMARKS
Bloomington    CLOUDY    32  30  92 S16       30.07F WCI  21
Champaign      CLOUDY    32  29  88 SE17      30.11F FOG     WCI  21
Danville       CLOUDY    31  29  92 SE12      30.11S WCI  22
Decatur        CLOUDY    33  30  88 S14       30.10S FOG     WCI  23
Effingham      CLOUDY    32  32 100 E10G18    30.14S FOG     WCI  24
Flora          FOG       33  32  96 SE8       30.15F VSB 1/2 WCI  26
Galesburg      CLOUDY    35  32  90 SE15      29.97F WCI  25
Jacksonville   CLOUDY    34  32  92 SE13      30.03R FOG     WCI  25
Lacon          CLOUDY    34  31  90 S10G17    30.05F WCI  26
Lawrenceville  CLOUDY    33  31  92 SE14      30.17F FOG     WCI  23
Litchfield     CLOUDY    33  32  96 SE12G18   30.06S FOG     WCI  24
$$


CITY           SKY/WX    TMP DP  RH WIND       PRES   REMARKS
Lincoln        CLOUDY    34  33  94 SE12      30.06F FOG     WCI  25
Macomb         LGT RAIN  35  33  93 SE14G23   30.00F WCI  25
Mattoon        CLOUDY    31  30  96 S13G22    30.10S FOG     WCI  21
Mt Carmel AP   FOG       32  32  99 SE14      30.16F VSB 1   WCI  22
Olney-Noble AP FOG       32  30  93 SE10      30.15F VSB 1/2 WCI  24
Paris AP       CLOUDY    31  30  96 SE16      30.15S FOG     WCI  20
Peoria         CLOUDY    35  31  85 SE13G28   30.03F WCI  26
Pontiac        CLOUDY    33  33  99 SE17      30.09F WCI  22
Rantoul        MOSUNNY   33  32  94 SE15      30.10F WCI  23
Robinson       CLOUDY    31  31  99 SE14      30.18F FOG     WCI  20
Springfield    CLOUDY    36  33  89 S20       30.05F FOG     WCI  25
Taylorville    CLOUDY    33  31  95 SE14G22   30.07F FOG     WCI  23
$$

...REGIONAL REPORTS...


CITY           SKY/WX    TMP DP  RH WIND       PRES   REMARKS
Chicago O`Hare CLOUDY    36  30  79 S13       30.10R WCI  27
Kankakee       SUNNY     33  30  87 SE16      30.12F WCI  23
Moline         CLOUDY    36  30  79 SE12G24   29.95F WCI  28
Mount Sterling CLOUDY    34  32  94 SE14      29.98S FOG     WCI  24
Mount Vernon   CLOUDY    32  31  96 SE6       30.13F FOG     WCI  26
Pittsfield     CLOUDY    36  33  91 SE13      30.00F FOG     WCI  27
Quincy         CLOUDY    37  32  82 SE17G24   29.94F HAZE    WCI  27
Rockford       CLOUDY    33  29  85 S17G28    30.04F WCI  22
$$


CITY           SKY/WX    TMP DP  RH WIND       PRES   REMARKS
Burlington     CLOUDY    36  34  92 SE12      29.94F WCI  28
Cedar Rapids   CLOUDY    35  32  88 SE18G24   29.88F FOG     WCI  24
Des Moines     CLOUDY    44  36  73 SE16      29.77F
Kirksville     CLOUDY    43  38  82 SE12      29.86F
Ottumwa        CLOUDY    39  34  82 SE16      29.85F WCI  30
St Louis       CLOUDY    37  35  92 SE15      30.05S FOG     WCI  28
$$


CITY           SKY/WX    TMP DP  RH WIND       PRES   REMARKS
Terre Haute    CLOUDY    32  28  85 SE14      30.17F WCI  22
Evansville     CLOUDY    34  33  96 SE7       30.18F FOG     WCI  28
Indianapolis   CLOUDY    34  29  82 SE13      30.19F WCI  25
Lafayette      CLOUDY    33  31  92 SE13      30.15F WCI  24
Madison        CLOUDY    34  29  82 S17G26    29.98F WCI  23
Milwaukee      CLOUDY    37  31  78 S12       30.06F WCI  29
$$






USA.gov is the U.S. government's official web portal to all federal, state and local government web resources and services.